| time (UTC) | temp F | wind direction | speed MPH | gust MPH | rain 1hr in | rain 24hr in | rain mn in | humidity % | barometer mb |
| 20260504060120 | 39 | 119 | 0.0 | 0.0 | 0.00 | 0.00 | 0.00 | 76 | 1018.2 |
| 20260504050548 | 42 | 137 | 0.0 | 0.0 | 0.00 | 0.00 | 0.00 | 70 | 1018.1 |
| 20260504045542 | 43 | 126 | 0.0 | 0.0 | 0.00 | 0.00 | 0.00 | 71 | 1018.0 |
| 20260504045037 | 42 | 87 | 0.0 | 0.0 | 0.00 | 0.00 | 0.00 | 72 | 1018.1 |
| 20260504044535 | 42 | 87 | 0.0 | 0.0 | 0.00 | 0.00 | 0.00 | 73 | 1018.0 |
| 20260504044032 | 42 | 87 | 0.0 | 0.0 | 0.00 | 0.00 | 0.00 | 73 | 1018.1 |
| 20260504043529 | 42 | 87 | 0.0 | 0.0 | 0.00 | 0.00 | 0.00 | 75 | 1018.0 |
| 20260504043026 | 42 | 77 | 0.0 | 0.0 | 0.00 | 0.00 | 0.00 | 73 | 1018.1 |
| 20260504042523 | 42 | 77 | 0.0 | 1.0 | 0.00 | 0.00 | 0.00 | 72 | 1018.1 |
| 20260504042020 | 42 | 144 | 0.0 | 0.0 | 0.00 | 0.00 | 0.00 | 73 | 1018.2 |
| 20260504041516 | 42 | 155 | 0.0 | 0.0 | 0.00 | 0.00 | 0.00 | 74 | 1018.2 |
| 20260504041012 | 42 | 256 | 0.0 | 1.0 | 0.00 | 0.00 | 0.00 | 76 | 1018.1 |
| 20260504040510 | 43 | 127 | 0.0 | 0.0 | 0.00 | 0.00 | 0.00 | 72 | 1018.1 |
| 20260504040007 | 42 | 108 | 1.0 | 1.0 | 0.00 | 0.00 | 0.00 | 68 | 1018.0 |
| 20260504035504 | 41 | 108 | 0.0 | 0.0 | 0.00 | 0.00 | 0.00 | 73 | 1018.1 |
| 20260504034959 | 42 | 108 | 0.0 | 0.0 | 0.00 | 0.00 | 0.00 | 73 | 1018.0 |
| 20260504034457 | 42 | 98 | 0.0 | 1.0 | 0.00 | 0.00 | 0.00 | 69 | 1018.1 |
| 20260504033954 | 42 | 131 | 0.0 | 0.0 | 0.00 | 0.00 | 0.00 | 72 | 1018.2 |
| 20260504033452 | 43 | 143 | 0.0 | 0.0 | 0.00 | 0.00 | 0.00 | 70 | 1017.9 |
| 20260504032949 | 42 | 132 | 1.0 | 2.0 | 0.00 | 0.00 | 0.00 | 69 | 1018.1 |
| 20260504032446 | 43 | 194 | 1.0 | 1.0 | 0.00 | 0.00 | 0.00 | 73 | 1018.2 |
| 20260504031942 | 43 | 95 | 1.0 | 1.0 | 0.00 | 0.00 | 0.00 | 67 | 1018.0 |
| 20260504031439 | 43 | 126 | 0.0 | 2.0 | 0.00 | 0.00 | 0.00 | 70 | 1018.1 |
| 20260504030936 | 44 | 128 | 0.0 | 0.0 | 0.00 | 0.00 | 0.00 | 68 | 1018.1 |
| 20260504030433 | 43 | 125 | 0.0 | 1.0 | 0.00 | 0.00 | 0.00 | 66 | 1018.3 |
| 20260504025929 | 43 | 137 | 0.0 | 0.0 | 0.00 | 0.00 | 0.00 | 68 | 1018.1 |
| 20260504025426 | 44 | 136 | 0.0 | 0.0 | 0.00 | 0.00 | 0.00 | 69 | 1018.3 |
| 20260504024923 | 43 | 176 | 0.0 | 0.0 | 0.00 | 0.00 | 0.00 | 68 | 1018.1 |
| 20260504024420 | 44 | 176 | 0.0 | 0.0 | 0.00 | 0.00 | 0.00 | 70 | 1018.1 |
| 20260504023917 | 44 | 162 | 0.0 | 1.0 | 0.00 | 0.00 | 0.00 | 68 | 1018.1 |
| 20260504023414 | 44 | 84 | 1.0 | 1.0 | 0.00 | 0.00 | 0.00 | 63 | 1018.2 |
| 20260504022909 | 44 | 89 | 0.0 | 0.0 | 0.00 | 0.00 | 0.00 | 69 | 1018.5 |
| 20260504022406 | 44 | 82 | 0.0 | 1.0 | 0.00 | 0.00 | 0.00 | 71 | 1018.3 |
| 20260504021902 | 44 | 123 | 1.0 | 1.0 | 0.00 | 0.00 | 0.00 | 66 | 1018.5 |
| 20260504021359 | 44 | 111 | 1.0 | 2.0 | 0.00 | 0.00 | 0.00 | 66 | 1018.3 |
| 20260504020856 | 43 | 101 | 0.0 | 0.0 | 0.00 | 0.00 | 0.00 | 68 | 1018.3 |
| 20260504020353 | 43 | 111 | 2.0 | 2.0 | 0.00 | 0.00 | 0.00 | 70 | 1018.3 |
| 20260504015849 | 43 | 51 | 3.0 | 3.0 | 0.00 | 0.00 | 0.00 | 67 | 1018.2 |
| 20260504015345 | 44 | 119 | 1.0 | 1.0 | 0.00 | 0.00 | 0.00 | 70 | 1018.3 |
| 20260504014841 | 44 | 177 | 0.0 | 1.0 | 0.00 | 0.00 | 0.00 | 61 | 1018.5 |
| 20260504014337 | 42 | 148 | 1.0 | 1.0 | 0.00 | 0.00 | 0.00 | 65 | 1018.3 |
| 20260504013835 | 42 | 91 | 0.0 | 1.0 | 0.00 | 0.00 | 0.00 | 68 | 1017.9 |
| 20260504013333 | 42 | 259 | 0.0 | 1.0 | 0.00 | 0.00 | 0.00 | 67 | 1017.9 |
| 20260504012830 | 43 | 273 | 1.0 | 2.0 | 0.00 | 0.00 | 0.00 | 67 | 1017.8 |
| 20260504012328 | 43 | 86 | 0.0 | 1.0 | 0.00 | 0.00 | 0.00 | 63 | 1017.7 |
| 20260504011825 | 42 | 81 | 1.0 | 3.0 | 0.00 | 0.00 | 0.00 | 63 | 1017.7 |
| 20260504011321 | 43 | 231 | 2.0 | 3.0 | 0.00 | 0.00 | 0.00 | 67 | 1017.5 |
| 20260504010817 | 44 | 85 | 0.0 | 0.0 | 0.00 | 0.00 | 0.00 | 62 | 1017.5 |
| 20260504010313 | 43 | 150 | 1.0 | 2.0 | 0.00 | 0.00 | 0.00 | 65 | 1017.5 |
| 20260504005809 | 44 | 231 | 0.0 | 0.0 | 0.00 | 0.00 | 0.00 | 61 | 1017.5 |
| 20260504005306 | 44 | 245 | 0.0 | 2.0 | 0.00 | 0.00 | 0.00 | 62 | 1017.4 |
| 20260504004804 | 44 | 71 | 3.0 | 3.0 | 0.00 | 0.00 | 0.00 | 57 | 1017.4 |
| 20260504004301 | 45 | 229 | 2.0 | 3.0 | 0.00 | 0.00 | 0.00 | 60 | 1017.5 |
| 20260504003757 | 45 | 84 | 2.0 | 3.0 | 0.00 | 0.00 | 0.00 | 53 | 1017.2 |
| 20260504003255 | 45 | 105 | 1.0 | 2.0 | 0.00 | 0.00 | 0.00 | 57 | 1017.3 |
| 20260504002752 | 47 | 100 | 2.0 | 3.0 | 0.00 | 0.00 | 0.00 | 51 | 1017.1 |
| 20260504002248 | 47 | 199 | 0.0 | 1.0 | 0.00 | 0.00 | 0.00 | 53 | 1017.3 |
| 20260504001746 | 47 | 114 | 1.0 | 2.0 | 0.00 | 0.00 | 0.00 | 57 | 1017.1 |
| 20260504001243 | 48 | 69 | 0.0 | 2.0 | 0.00 | 0.00 | 0.00 | 51 | 1017.1 |
| 20260504000740 | 49 | 148 | 0.0 | 0.0 | 0.00 | 0.00 | 0.00 | 55 | 1017.0 |
| 20260504000236 | 49 | 132 | 1.0 | 1.0 | 0.00 | 0.00 | 0.00 | 49 | 1017.1 |
| 20260503235735 | 50 | 113 | 1.0 | 2.0 | 0.00 | 0.00 | 0.00 | 49 | 1017.1 |
| 20260503235232 | 49 | 117 | 2.0 | 3.0 | 0.00 | 0.00 | 0.00 | 50 | 1017.1 |
| 20260503234730 | 50 | 135 | 0.0 | 1.0 | 0.00 | 0.00 | 0.00 | 51 | 1017.1 |
| 20260503234227 | 51 | 122 | 2.0 | 3.0 | 0.00 | 0.00 | 0.00 | 45 | 1017.0 |
| 20260503233724 | 50 | 135 | 3.0 | 3.0 | 0.00 | 0.00 | 0.00 | 43 | 1017.2 |
| 20260503233219 | 53 | 236 | 1.0 | 3.0 | 0.00 | 0.00 | 0.00 | 46 | 1017.2 |
| 20260503232716 | 53 | 80 | 0.0 | 2.0 | 0.00 | 0.00 | 0.00 | 38 | 1017.0 |
| 20260503232213 | 54 | 225 | 1.0 | 2.0 | 0.00 | 0.00 | 0.00 | 36 | 1017.2 |
| 20260503231712 | 54 | 284 | 0.0 | 1.0 | 0.00 | 0.00 | 0.00 | 42 | 1017.0 |
| 20260503231208 | 58 | 227 | 1.0 | 1.0 | 0.00 | 0.00 | 0.00 | 33 | 1017.1 |
| 20260503230704 | 57 | 246 | 2.0 | 2.0 | 0.00 | 0.00 | 0.00 | 34 | 1017.2 |
| 20260503230202 | 58 | 222 | 2.0 | 3.0 | 0.00 | 0.00 | 0.00 | 32 | 1017.0 |
| 20260503225659 | 58 | 329 | 2.0 | 3.0 | 0.00 | 0.00 | 0.00 | 32 | 1017.1 |
| 20260503225154 | 58 | 271 | 2.0 | 9.0 | 0.00 | 0.00 | 0.00 | 35 | 1017.2 |
| 20260503224652 | 59 | 241 | 2.0 | 4.0 | 0.00 | 0.00 | 0.00 | 30 | 1017.2 |
| 20260503224149 | 58 | 267 | 2.0 | 3.0 | 0.00 | 0.00 | 0.00 | 32 | 1017.1 |
| 20260503223647 | 59 | 204 | 2.0 | 9.0 | 0.00 | 0.00 | 0.00 | 32 | 1017.2 |
| 20260503223143 | 59 | 242 | 3.0 | 6.0 | 0.00 | 0.00 | 0.00 | 33 | 1016.9 |
| 20260503222641 | 58 | 173 | 3.0 | 7.0 | 0.00 | 0.00 | 0.00 | 30 | 1016.8 |
| 20260503222138 | 58 | 264 | 6.0 | 8.0 | 0.00 | 0.00 | 0.00 | 31 | 1017.1 |
| 20260503221637 | 60 | 171 | 7.0 | 9.0 | 0.00 | 0.00 | 0.00 | 29 | 1016.8 |
| 20260503221133 | 59 | 261 | 4.0 | 6.0 | 0.00 | 0.00 | 0.00 | 32 | 1016.8 |
| 20260503220630 | 60 | 161 | 1.0 | 3.0 | 0.00 | 0.00 | 0.00 | 32 | 1016.8 |
| 20260503220127 | 61 | 197 | 1.0 | 2.0 | 0.00 | 0.00 | 0.00 | 28 | 1017.0 |
| 20260503215624 | 60 | 70 | 1.0 | 6.0 | 0.00 | 0.00 | 0.00 | 36 | 1016.9 |
| 20260503215120 | 60 | 202 | 4.0 | 6.0 | 0.00 | 0.00 | 0.00 | 33 | 1016.9 |
| 20260503214619 | 58 | 230 | 2.0 | 6.0 | 0.00 | 0.00 | 0.00 | 31 | 1017.0 |
| 20260503214114 | 59 | 157 | 3.0 | 6.0 | 0.00 | 0.00 | 0.00 | 29 | 1017.0 |
| 20260503213609 | 58 | 142 | 2.0 | 4.0 | 0.00 | 0.00 | 0.00 | 29 | 1016.9 |
| 20260503213104 | 59 | 230 | 6.0 | 9.0 | 0.00 | 0.00 | 0.00 | 29 | 1017.1 |
| 20260503212602 | 59 | 238 | 2.0 | 4.0 | 0.00 | 0.00 | 0.00 | 34 | 1017.1 |
| 20260503212059 | 57 | 248 | 3.0 | 8.0 | 0.00 | 0.00 | 0.00 | 34 | 1017.3 |
| 20260503211556 | 58 | 204 | 5.0 | 9.0 | 0.00 | 0.00 | 0.00 | 33 | 1017.3 |
| 20260503211052 | 59 | 113 | 7.0 | 10.0 | 0.00 | 0.00 | 0.00 | 29 | 1017.1 |
| 20260503210549 | 59 | 270 | 2.0 | 3.0 | 0.00 | 0.00 | 0.00 | 30 | 1017.2 |
| 20260503210044 | 58 | 264 | 3.0 | 6.0 | 0.00 | 0.00 | 0.00 | 30 | 1017.2 |
| 20260503205541 | 58 | 259 | 5.0 | 8.0 | 0.00 | 0.00 | 0.00 | 32 | 1017.4 |
| 20260503205038 | 58 | 238 | 4.0 | 6.0 | 0.00 | 0.00 | 0.00 | 33 | 1017.3 |
| 20260503204535 | 58 | 186 | 6.0 | 10.0 | 0.00 | 0.00 | 0.00 | 32 | 1017.3 |
| 20260503204032 | 58 | 247 | 4.0 | 10.0 | 0.00 | 0.00 | 0.00 | 33 | 1017.1 |
| 20260503203529 | 59 | 251 | 7.0 | 10.0 | 0.00 | 0.00 | 0.00 | 31 | 1017.2 |
| 20260503203026 | 57 | 241 | 0.0 | 8.0 | 0.00 | 0.00 | 0.00 | 36 | 1017.6 |
| 20260503202524 | 59 | 211 | 4.0 | 9.0 | 0.00 | 0.00 | 0.00 | 34 | 1017.6 |
| 20260503202022 | 60 | 268 | 1.0 | 4.0 | 0.00 | 0.00 | 0.00 | 28 | 1017.5 |
| 20260503201520 | 60 | 184 | 0.0 | 2.0 | 0.00 | 0.00 | 0.00 | 33 | 1017.7 |
| 20260503201017 | 59 | 90 | 2.0 | 3.0 | 0.00 | 0.00 | 0.00 | 31 | 1017.5 |
| 20260503200513 | 58 | 326 | 2.0 | 2.0 | 0.00 | 0.00 | 0.00 | 34 | 1017.6 |
| 20260503200010 | 59 | 227 | 4.0 | 4.0 | 0.00 | 0.00 | 0.00 | 31 | 1017.9 |
| 20260503195507 | 58 | 13 | 0.0 | 2.0 | 0.00 | 0.00 | 0.00 | 40 | 1017.6 |
| 20260503195003 | 57 | 8 | 0.0 | 7.0 | 0.00 | 0.00 | 0.00 | 31 | 1017.9 |
| 20260503194501 | 57 | 206 | 2.0 | 3.0 | 0.00 | 0.00 | 0.00 | 35 | 1017.9 |
| 20260503194000 | 56 | 168 | 4.0 | 13.0 | 0.00 | 0.00 | 0.00 | 33 | 1018.1 |
| 20260503193457 | 56 | 106 | 2.0 | 7.0 | 0.00 | 0.00 | 0.00 | 33 | 1018.1 |
| 20260503192953 | 56 | 259 | 4.0 | 10.0 | 0.00 | 0.00 | 0.00 | 32 | 1018.5 |
| 20260503192449 | 56 | 210 | 4.0 | 9.0 | 0.00 | 0.00 | 0.00 | 33 | 1018.0 |
| 20260503191944 | 56 | 83 | 2.0 | 2.0 | 0.00 | 0.00 | 0.00 | 37 | 1018.2 |
| 20260503191443 | 58 | 205 | 3.0 | 7.0 | 0.00 | 0.00 | 0.00 | 30 | 1018.0 |
| 20260503190938 | 57 | 348 | 2.0 | 2.0 | 0.00 | 0.00 | 0.00 | 34 | 1018.3 |
| 20260503190436 | 57 | 219 | 0.0 | 2.0 | 0.00 | 0.00 | 0.00 | 29 | 1018.3 |
| 20260503185933 | 56 | 245 | 2.0 | 6.0 | 0.00 | 0.00 | 0.00 | 30 | 1018.8 |
| 20260503185429 | 55 | 20 | 0.0 | 2.0 | 0.00 | 0.00 | 0.00 | 34 | 1018.6 |
| 20260503184928 | 56 | 334 | 4.0 | 6.0 | 0.00 | 0.00 | 0.00 | 32 | 1018.8 |
| 20260503184425 | 57 | 0 | 3.0 | 4.0 | 0.00 | 0.00 | 0.00 | 30 | 1018.9 |
| 20260503183922 | 56 | 143 | 0.0 | 3.0 | 0.00 | 0.00 | 0.00 | 42 | 1018.9 |
| 20260503183418 | 56 | 242 | 4.0 | 4.0 | 0.00 | 0.00 | 0.00 | 37 | 1019.0 |
| 20260503182916 | 55 | 188 | 0.0 | 3.0 | 0.00 | 0.00 | 0.00 | 38 | 1019.0 |
| 20260503182415 | 53 | 207 | 6.0 | 7.0 | 0.00 | 0.00 | 0.00 | 38 | 1019.0 |
| 20260503181911 | 55 | 241 | 7.0 | 17.0 | 0.00 | 0.00 | 0.00 | 38 | 1019.1 |
| 20260503181408 | 55 | 248 | 5.0 | 8.0 | 0.00 | 0.00 | 0.00 | 38 | 1018.9 |
| 20260503180904 | 54 | 7 | 1.0 | 6.0 | 0.00 | 0.00 | 0.00 | 33 | 1019.0 |
| 20260503180403 | 54 | 277 | 4.0 | 6.0 | 0.00 | 0.00 | 0.00 | 38 | 1019.4 |
| 20260503175859 | 53 | 199 | 8.0 | 14.0 | 0.00 | 0.00 | 0.00 | 33 | 1019.1 |
| 20260503175357 | 53 | 269 | 3.0 | 9.0 | 0.00 | 0.00 | 0.00 | 34 | 1019.2 |
| 20260503174857 | 53 | 84 | 3.0 | 8.0 | 0.00 | 0.00 | 0.00 | 39 | 1019.1 |
| 20260503174356 | 54 | 194 | 6.0 | 8.0 | 0.00 | 0.00 | 0.00 | 35 | 1019.4 |
| 20260503173851 | 53 | 160 | 1.0 | 2.0 | 0.00 | 0.00 | 0.00 | 34 | 1019.2 |
| 20260503173347 | 53 | 307 | 5.0 | 14.0 | 0.00 | 0.00 | 0.00 | 32 | 1019.5 |
| 20260503172844 | 53 | 217 | 4.0 | 9.0 | 0.00 | 0.00 | 0.00 | 42 | 1019.4 |
| 20260503172342 | 53 | 306 | 3.0 | 3.0 | 0.00 | 0.00 | 0.00 | 33 | 1019.5 |
| 20260503171837 | 52 | 117 | 2.0 | 7.0 | 0.00 | 0.00 | 0.00 | 35 | 1019.6 |
| 20260503171335 | 52 | 199 | 3.0 | 8.0 | 0.00 | 0.00 | 0.00 | 34 | 1019.8 |
| 20260503170832 | 51 | 49 | 4.0 | 7.0 | 0.00 | 0.00 | 0.00 | 38 | 1019.6 |
| 20260503170328 | 51 | 73 | 4.0 | 6.0 | 0.00 | 0.00 | 0.00 | 41 | 1019.6 |
| 20260503150720 | 46 | 215 | 3.0 | 6.0 | 0.00 | 0.00 | 0.00 | 47 | 1020.8 |
| 20260503150217 | 47 | 190 | 8.0 | 11.0 | 0.00 | 0.00 | 0.00 | 46 | 1020.8 |
| 20260503140141 | 44 | 25 | 1.0 | 8.0 | 0.00 | 0.00 | 0.00 | 52 | 1020.7 |
| 20260503131110 | 41 | 226 | 3.0 | 6.0 | 0.00 | 0.00 | 0.00 | 55 | 1020.9 |
| 20260503130608 | 41 | 68 | 4.0 | 11.0 | 0.00 | 0.00 | 0.00 | 55 | 1020.6 |
| 20260503130106 | 42 | 71 | 2.0 | 9.0 | 0.00 | 0.00 | 0.00 | 54 | 1020.7 |
| 20260503110458 | 37 | 211 | 2.0 | 4.0 | 0.00 | 0.00 | 0.00 | 65 | 1019.1 |
| 20260503090344 | 38 | 57 | 1.0 | 4.0 | 0.00 | 0.00 | 0.00 | 66 | 1018.1 |
| 20260503081311 | 39 | 85 | 5.0 | 7.0 | 0.00 | 0.00 | 0.00 | 65 | 1017.6 |
| 20260503080807 | 39 | 209 | 3.0 | 7.0 | 0.00 | 0.00 | 0.00 | 63 | 1017.8 |
| 20260503080305 | 39 | 20 | 0.0 | 1.0 | 0.00 | 0.00 | 0.00 | 66 | 1017.6 |
| 20260503072741 | 39 | 243 | 2.0 | 9.0 | 0.00 | 0.00 | 0.00 | 65 | 1017.1 |
| 20260503072238 | 39 | 178 | 1.0 | 2.0 | 0.00 | 0.00 | 0.00 | 67 | 1017.2 |
| 20260503071734 | 39 | 37 | 3.0 | 6.0 | 0.00 | 0.00 | 0.00 | 65 | 1017.1 |
| 20260503071231 | 39 | 56 | 3.0 | 7.0 | 0.00 | 0.00 | 0.00 | 65 | 1017.1 |
| 20260503070727 | 39 | 344 | 2.0 | 3.0 | 0.00 | 0.00 | 0.00 | 65 | 1016.9 |
| 20260503070226 | 39 | 113 | 8.0 | 13.0 | 0.00 | 0.00 | 0.00 | 63 | 1016.9 |